Location: Azul
(36.7830°S, 59.8500°W)
Time: 08:37:41
(UTC-03:00)

ISS - Pass Details

Date: 08 April 2020
Orbit: 417 x 419 km, 51.6° (Epoch: 31 May)

Event Time Altitude Azimuth Distance (km) Brightness Sun altitude
Exits shadow 06:40:57 - 219° (SW) 2,149 -0.6 -8.5°
Reaches altitude 10° 06:42:37 10° 209° (SSW) 1,535 -1.2 -8.2°
Maximum altitude 06:45:37 27° 148° (SSE) 864 -1.8 -7.6°
Drops below altitude 10° 06:48:43 - 87° (E) 1,562 1.0 -6.9°
Sets 06:50:55 0° 75° (ENE) 2,386 2.2 -6.5°
